Regional Weather Roundup
Issued by NWS

Home | Current Version | Previous Version | Graphics & Text | Print | Product List | Glossary On
Versions: 1 2 3 4 5 6 7 8 9 10 11 12 13 14 15 16 17 18 19 20 21 22 23 24 25 26 27 28 29 30 31 32 33 34 35 36 37 38 39 40 41 42 43 44 45 46 47 48 49 50
000
ASUS43 KIND 141259
RWRIN

WEATHER ROUNDUP FOR INDIANA
NATIONAL WEATHER SERVICE INDIANAPOLIS IN
800 AM EST THU DEC 14 2017

NOTE: "FAIR" INDICATES FEW OR NO CLOUDS BELOW 12,000 FEET WITH NO
SIGNIFICANT WEATHER AND/OR OBSTRUCTIONS TO VISIBILITY.

* - STATION DOES NOT REPORT WEATHER SUCH AS PRECIPITATION OR FOG.

+ - STATION NOT QUALITY CONTROLLED BY THE NATIONAL WEATHER SERVICE.
    USE DATA WITH CAUTION...ESPECIALLY DEWPOINT AND RELATIVE
    HUMIDITY OBSERVATIONS.

INZ001>003-010>013-019-020-141400-
NORTHWEST INDIANA

CITY           SKY/WX    TMP DP  RH WIND       PRES   REMARKS
GARY /AIRPORT/ FLURRIES  23  16  74 W9        30.00R WCI  13
MICHIGAN CITY+ CLOUDY    21  10  63 SE3       29.99R
MONTICELLO +   CLOUDY    21  13  69 E5        29.98R WCI  15
RENSSELAER +   FLURRIES  25  18  74 E7        29.99R WCI  17

$$

LMZ046-743>745-141400-
SOUTHERN LAKE MICHIGAN

STATION/POSITION TIME  TEMP    WIND        PRES    WAVE
                       AIR SEA DIR/SP/G            HT
                 (UTC) (F)     (DEG/KT/KT) (MB)    (FT)
BURNS HARBOR     1240   24     100/  5/  7 1015.9R
MICHIGAN CITY    1230   20      90/  7/  9   N/A

$$

INZ004-005-014>016-021>024-141400-
NORTH CENTRAL INDIANA

CITY           SKY/WX    TMP DP  RH WIND       PRES   REMARKS
ELKHART        CLOUDY     5   3  92 CALM      29.97R
GOSHEN         CLOUDY     7   4  87 CALM      29.97R
SOUTH BEND     CLOUDY    12  10  92 E5        29.97R WCI   4

$$

INZ006>009-017-018-025>027-141400-
NORTHEAST INDIANA

CITY           SKY/WX    TMP DP  RH WIND       PRES   REMARKS
FORT WAYNE     PTCLDY    14  10  84 N9        29.97R WCI   2
KENDALLVILLE + CLOUDY     9   6  88 N6        29.94R WCI  -1

$$

INZ028-029-035-036-043>045-051>053-141400-
WEST CENTRAL INDIANA

CITY           SKY/WX    TMP DP  RH WIND       PRES   REMARKS
LAFAYETTE      CLOUDY    25  18  74 E8        29.98R WCI  16
TERRE HAUTE    CLOUDY    29  19  66 NW9       29.97R WCI  20

$$

INZ030>032-037>040-046>048-054>057-064-065-141400-
CENTRAL INDIANA

CITY           SKY/WX    TMP DP  RH WIND       PRES   REMARKS
COLUMBUS       CLOUDY    27  12  54 NE13      29.97R WCI  16
INDIANAPOLIS   CLOUDY    26  15  63 N12       29.96R WCI  16
-EAGLE CREEK   CLOUDY    25  15  66 N9        29.96R WCI  15
MT COMFORT *+  CLEAR     18  16  93 N7        29.97R WCI   8
SHELBYVILLE    PTCLDY    23  13  65 N7        29.96R WCI  15

$$

INZ033-034-041-042-049-050-058-059-141400-
EAST CENTRAL INDIANA

CITY           SKY/WX    TMP DP  RH WIND       PRES   REMARKS
MUNCIE         CLOUDY    22  15  75 N6        29.96S WCI  14
RICHMOND +     CLOUDY    21  18  86 N9        29.93R WCI  11

$$

INZ060-061-067>069-081>083-085>088-141400-
SOUTHWEST INDIANA

CITY           SKY/WX    TMP DP  RH WIND       PRES   REMARKS
EVANSVILLE     MOCLDY    28  20  71 N3        30.00R
HUNTINGBURG +  CLOUDY    26  22  84 W3        29.99R

$$

INZ062-063-066-070>080-084-089>092-141400-
SOUTH CENTRAL AND SOUTHEAST INDIANA

CITY           SKY/WX    TMP DP  RH WIND       PRES   REMARKS
BLOOMINGTON    CLOUDY    30  19  63 N10       29.94R WCI  21
SEYMOUR +      CLOUDY    30  18  59 N12       29.97R WCI  21

$$





USA.gov is the U.S. government's official web portal to all federal, state and local government web resources and services.